Location: Austin
(30.3000°N, 97.7500°W)
Time: 00:01:04
(UTC-05:00)

SJ-6B - Pass Details

Date: 08 April 2026
Orbit: 455 x 498 km, 97.3° (Epoch: 20 April)

Event Time Altitude Azimuth Distance (km) Brightness Sun altitude
Exits shadow 20:46:45 - 165° (SSE) 2,459 5.8 -11.9°
Reaches altitude 10° 20:48:34 10° 164° (SSE) 1,690 5.0 -12.2°
Maximum altitude 20:52:13 78° 77° (ENE) 513 2.5 -13.0°
Drops below altitude 10° 20:55:53 10° 352° (N) 1,704 5.7 -13.7°
Sets 20:57:58 0° 351° (N) 2,590 6.6 -14.2°
